Home > Weather > Malabo > Past weeks

Flag for Equatorial Guinea Past Weather in Malabo, Equatorial Guinea — Yesterday and Last 2 Weeks

Now
77 °F

Broken clouds.


Feels Like: 78 °F
Forecast: 75 / 81 °F
Wind: 12 mph from Southwest

Location: Malabo/Fernando Poo

Current Time: Aug 24, 2016 at 3:02:11 PM

Latest Report: Aug 24, 2016 at 2:00 PM


Visibility: N/A

Pressure: 29.92 "Hg

Humidity: 83%

Dew Point: 72 °F

Location of MalaboLocation

Past Weather in Malabo — Graph

°F

Malabo Temperature Yesterday

Maximum temperature yesterday: 82 °F (at 1:00 PM)
Minimum temperature yesterday: 75 °F (at 3:00 AM)
Average temperature yesterday: 78 °F

High & Low Weather Summary for the Past Weeks

 TemperatureHumidityPressure
High86 °F (Aug 11, 12:00 PM)94% (Aug 10, 5:00 AM)30.01 "Hg (Aug 10, 5:00 AM)
Low72 °F (Aug 18, 1:00 AM)66% (Aug 11, 10:00 AM)29.86 "Hg (Aug 13, 5:00 PM)
Average77 °F87%29.94 "Hg
* Reported Aug 9 1:00 PM — Aug 24 1:00 PM, Malabo, Weather by CustomWeather, © 2016

Note: Actual official high and low records may vary slightly from our data, if they occured in-between our weather recording intervals... More about our weather records

Advertising

Malabo Weather History for the Previous 24 Hours

Scroll right to see more
 ConditionsComfort  
Time TempWeatherWind HumidityBarometerVisibility
1:00 PM
Wed, Aug 24
77 °FThunderstorms. Broken clouds.10 mph83%29.95 "Hg6 mi
11:00 AM75 °FThunderstorms. Broken clouds.7 mph94%30.01 "HgN/A
10:00 AM75 °FThunderstorms. Broken clouds.5 mph94%30.01 "Hg6 mi
9:00 AM77 °FPartly sunny.9 mph83%30.01 "HgN/A
8:00 AM77 °FPartly sunny.8 mph89%29.98 "HgN/A
7:00 AM75 °FLight rain. Partly sunny.8 mph89%29.95 "HgN/A
6:00 AM75 °FPassing clouds.8 mph89%29.95 "HgN/A
5:00 AM75 °FPassing clouds.7 mph94%29.92 "HgN/A
4:00 AM77 °FPassing clouds.10 mph89%29.92 "HgN/A
3:00 AM75 °FPassing clouds.6 mph94%29.92 "HgN/A
2:00 AM77 °FPassing clouds.8 mph89%29.92 "HgN/A
1:00 AM77 °FPassing clouds.7 mph89%29.95 "HgN/A
12:00 AM77 °FPassing clouds.7 mph89%29.95 "HgN/A
11:00 PM
Tue, Aug 23
77 °FPassing clouds.5 mph89%29.98 "HgN/A
10:00 PM77 °FPassing clouds.6 mph89%29.98 "HgN/A
9:00 PM77 °FPassing clouds.5 mph89%29.95 "HgN/A
8:00 PM77 °FPassing clouds.8 mph89%29.95 "HgN/A
7:00 PM77 °FPassing clouds.6 mph89%29.92 "HgN/A
6:00 PM79 °FPartly sunny.9 mph84%29.89 "HgN/A
5:00 PM82 °FScattered clouds.8 mph74%29.86 "HgN/A
4:00 PM81 °FScattered clouds.13 mph79%29.86 "HgN/A
3:00 PM81 °FScattered clouds.12 mph84%29.89 "HgN/A
Weather by CustomWeather, © 2016

See weather overviewHow to use our weather pages